sat.trackr.live / text

‹ back to catalog

STARLINK-37252

NORAD 68622 · 2026-073W

PAYLOAD ACTIVE UNKNOWN

§ Identity

Operator
Country
US
Launch date
2026-04-07
Launch site
AFWTR
Launch vehicle
Mass (kg)
RCS (m²)

Purposes: comms

External: N2YO · Heavens-Above · Gunter

§ Orbital elements

Epoch: 2026-09-20T00:15:42.816672Z

Period
93.91 min
Inclination
97.2848°
Eccentricity
0.0001773
Mean motion
15.33450567 rev/d
Perigee alt
464.3 km
Apogee alt
466.7 km
Semi-major
6,843.7 km
B*
9.7959e-4
RAAN
101.0032°
Arg perigee
85.1768°
Mean anomaly
274.9678°
Rev number
2,566

§ Raw data

STARLINK-372521 68622U 26073W   26263.01091223  .00031689  00000+0  97959-3 0  99972 68622  97.2848 101.0032 0001773  85.1768 274.9678 15.33450567 25665

JSON: /api/v1/satellites/68622 · /tle

For live sub-satellite position, see the globe view (requires WebGL).

§ Visibility from observer

Set your observer location to see the next 7 days of passes ≥ 10°. The values pass through the URL so the page stays shareable.

No JS? Fill the form by hand. The geolocation button needs JavaScript.